EW6308 Weather Reports


Display with metric or nautical units.
time (UTC)temp
F
wind
direction
speed
MPH
gust
MPH
rain 1hr
in
rain 24hr
in
rain mn
in
humidity
%
barometer
mb
20260906025042 85 208 1.0 6.0 0.00 0.01 0.01 66 1015.1
20260906024537 86 192 2.0 3.0 0.00 0.01 0.01 66 1014.7
20260906024037 86 156 3.0 4.0 0.00 0.01 0.01 66 1014.6
20260906023533 86 189 3.0 6.0 0.00 0.01 0.01 65 1014.5
20260906023028 86 214 0.0 2.0 0.00 0.01 0.01 65 1014.6
20260906022523 86 264 3.0 4.0 0.00 0.01 0.01 64 1014.5
20260906022019 86 169 2.0 4.0 0.00 0.01 0.01 64 1014.5
20260906021515 86 227 1.0 2.0 0.00 0.01 0.01 63 1014.2
20260906021008 87 207 0.0 4.0 0.00 0.01 0.01 63 1014.1
20260906020507 87 196 2.0 4.0 0.00 0.01 0.01 62 1014.2
20260906020007 87 159 7.0 9.0 0.00 0.01 0.01 62 1014.1
20260906015506 87 214 0.0 2.0 0.00 0.01 0.01 62 1014.1
20260906015007 87 214 2.0 4.0 0.00 0.01 0.01 61 1014.1
20260906014501 88 193 4.0 8.0 0.00 0.01 0.01 60 1013.8
20260906013957 88 220 3.0 6.0 0.00 0.01 0.01 59 1014.0
20260906013452 88 149 3.0 7.0 0.00 0.01 0.01 59 1014.1
20260906012948 88 199 2.0 6.0 0.00 0.01 0.01 58 1014.0
20260906012442 89 126 6.0 10.0 0.00 0.01 0.01 58 1013.8
20260906011942 89 225 2.0 7.0 0.00 0.01 0.01 58 1013.7
20260906011437 89 101 3.0 8.0 0.00 0.01 0.01 58 1013.8
20260906010932 90 171 5.0 10.0 0.00 0.01 0.01 57 1013.7
20260906010428 90 200 4.0 6.0 0.00 0.01 0.01 56 1013.6
20260906005924 90 149 4.0 6.0 0.00 0.01 0.01 55 1013.6
20260906005423 91 146 4.0 14.0 0.00 0.01 0.01 54 1013.4
20260906004922 91 101 3.0 7.0 0.00 0.01 0.01 53 1013.4
20260906004416 91 96 9.0 11.0 0.00 0.01 0.01 53 1013.3
20260906003912 91 245 2.0 8.0 0.00 0.01 0.01 53 1013.2
20260906003407 91 195 3.0 7.0 0.00 0.01 0.01 53 1013.2
20260906002902 91 93 7.0 13.0 0.00 0.01 0.01 53 1013.5
20260906002402 91 125 3.0 8.0 0.00 0.01 0.01 54 1013.5
20260906001857 91 140 3.0 11.0 0.00 0.01 0.01 53 1013.5
20260906001354 91 196 2.0 6.0 0.00 0.01 0.01 53 1013.5
20260906000854 91 53 3.0 6.0 0.00 0.01 0.01 54 1013.4
20260906000355 91 107 2.0 7.0 0.00 0.01 0.01 54 1013.4
20260905235848 91 156 1.0 4.0 0.00 0.01 0.01 55 1013.3
20260905235343 91 119 4.0 10.0 0.00 0.01 0.01 55 1013.4
20260905234838 91 116 3.0 6.0 0.00 0.01 0.01 55 1013.2
20260905234333 91 57 2.0 7.0 0.00 0.01 0.01 56 1013.1
20260905233828 91 165 4.0 8.0 0.07 0.01 0.01 58 1013.2
20260905233323 91 244 3.0 6.0 0.07 0.01 0.01 59 1013.0
20260905232822 93 201 2.0 6.0 0.00 0.00 0.00 58 1013.1
20260905232319 95 141 4.0 13.0 0.00 0.00 0.00 52 1013.2
20260905231814 96 134 7.0 11.0 0.00 0.00 0.00 48 1013.3
20260905231309 96 174 4.0 10.0 0.00 0.00 0.00 48 1013.1
20260905230805 96 187 6.0 10.0 0.00 0.00 0.00 47 1013.1
20260905230303 97 225 4.0 13.0 0.00 0.00 0.00 46 1013.1
20260905225803 98 115 5.0 9.0 0.00 0.00 0.00 45 1013.0
20260905225258 98 179 3.0 3.0 0.00 0.00 0.00 39 1012.9
20260905224757 98 80 3.0 4.0 0.00 0.00 0.00 39 1012.9
20260905224253 99 194 1.0 4.0 0.00 0.00 0.00 39 1012.9
20260905223748 99 135 0.0 7.0 0.00 0.00 0.00 39 1013.0
20260905223246 99 119 4.0 4.0 0.00 0.00 0.00 39 1012.9
20260905222741 99 1 3.0 3.0 0.00 0.00 0.00 38 1012.6
20260905222240 99 62 3.0 6.0 0.00 0.00 0.00 39 1012.7
20260905221736 101 65 3.0 8.0 0.00 0.00 0.00 38 1012.6
20260905221233 100 187 1.0 3.0 0.00 0.00 0.00 38 1012.6
20260905220728 100 160 4.0 7.0 0.00 0.00 0.00 37 1012.6
20260905220224 101 90 2.0 3.0 0.00 0.00 0.00 38 1012.6
20260905215723 100 95 2.0 4.0 0.00 0.00 0.00 38 1012.5
20260905215219 100 195 7.0 9.0 0.00 0.00 0.00 37 1012.6
20260905214715 101 215 5.0 6.0 0.00 0.00 0.00 37 1012.7
20260905214210 100 84 1.0 3.0 0.00 0.00 0.00 37 1012.8
20260905213705 100 232 3.0 4.0 0.00 0.00 0.00 38 1013.0
20260905213201 99 212 4.0 6.0 0.00 0.00 0.00 39 1012.9
20260905212656 100 205 7.0 9.0 0.00 0.00 0.00 38 1013.0
20260905212155 101 189 5.0 7.0 0.00 0.00 0.00 38 1013.1
20260905211650 100 226 1.0 2.0 0.00 0.00 0.00 37 1013.1
20260905211146 100 221 5.0 7.0 0.00 0.00 0.00 37 1013.4
20260905210643 100 225 1.0 4.0 0.00 0.00 0.00 40 1013.5
20260905210142 100 178 2.0 4.0 0.00 0.00 0.00 39 1013.4
20260905205641 100 270 2.0 4.0 0.00 0.00 0.00 40 1013.4
20260905205136 100 229 3.0 7.0 0.00 0.00 0.00 40 1013.6
20260905204635 100 114 2.0 4.0 0.00 0.00 0.00 40 1013.6
20260905204131 100 197 1.0 3.0 0.00 0.00 0.00 41 1013.5
20260905203630 100 96 4.0 7.0 0.00 0.00 0.00 41 1013.7
20260905203126 99 209 6.0 7.0 0.00 0.00 0.00 41 1013.9
20260905202622 99 60 2.0 3.0 0.00 0.00 0.00 41 1013.8
20260905202117 99 105 2.0 4.0 0.00 0.00 0.00 41 1013.8
20260905201613 99 22 0.0 4.0 0.00 0.00 0.00 41 1014.1
20260905201112 98 208 1.0 2.0 0.00 0.00 0.00 43 1013.7
20260905200608 99 52 2.0 7.0 0.00 0.00 0.00 41 1014.0
20260905195601 97 194 2.0 7.0 0.00 0.00 0.00 44 1014.2
20260905195057 97 353 6.0 7.0 0.00 0.00 0.00 44 1014.3
20260905194556 97 135 3.0 8.0 0.00 0.00 0.00 44 1014.4
20260905194056 99 188 4.0 6.0 0.00 0.00 0.00 42 1014.5
20260905193551 99 122 3.0 4.0 0.00 0.00 0.00 42 1014.5
20260905193046 98 248 1.0 6.0 0.00 0.00 0.00 43 1014.6
20260905192541 98 272 2.0 4.0 0.00 0.00 0.00 44 1014.9
20260905192038 98 210 2.0 4.0 0.00 0.00 0.00 43 1014.8
20260905191536 97 220 1.0 8.0 0.00 0.00 0.00 44 1014.9
20260905191036 98 222 4.0 7.0 0.00 0.00 0.00 44 1015.0
20260905190533 99 249 4.0 7.0 0.00 0.00 0.00 43 1015.1
20260905190027 98 293 1.0 3.0 0.00 0.00 0.00 43 1015.1
20260905185521 97 88 4.0 6.0 0.00 0.00 0.00 44 1015.2
20260905185020 96 218 2.0 6.0 0.00 0.00 0.00 46 1015.2
20260905184515 97 196 3.0 4.0 0.00 0.00 0.00 45 1015.3
20260905184014 96 69 2.0 3.0 0.00 0.00 0.00 46 1015.6
20260905183513 96 240 0.0 3.0 0.00 0.00 0.00 46 1015.6
20260905183009 98 184 6.0 9.0 0.00 0.00 0.00 44 1015.6
20260905182508 97 304 0.0 2.0 0.00 0.00 0.00 44 1015.7
20260905182003 97 62 2.0 4.0 0.00 0.00 0.00 44 1015.8
20260905181458 97 214 5.0 7.0 0.00 0.00 0.00 44 1016.0
20260905180957 96 181 9.0 10.0 0.00 0.00 0.00 46 1016.1
20260905180458 93 189 3.0 7.0 0.00 0.00 0.00 51 1016.0
20260905175953 93 331 1.0 2.0 0.00 0.00 0.00 50 1016.3
20260905175453 94 170 2.0 4.0 0.00 0.00 0.00 50 1016.5
20260905174949 94 181 2.0 3.0 0.00 0.00 0.00 50 1016.3
20260905174449 96 196 4.0 8.0 0.00 0.00 0.00 47 1016.6
20260905173945 96 142 2.0 6.0 0.00 0.00 0.00 46 1016.7
20260905173441 95 209 3.0 6.0 0.00 0.00 0.00 48 1016.7
20260905172936 95 257 2.0 7.0 0.00 0.00 0.00 47 1016.9
20260905172434 94 200 1.0 7.0 0.00 0.00 0.00 49 1016.7
20260905171930 94 223 3.0 4.0 0.00 0.00 0.00 50 1016.6
20260905171426 92 174 4.0 8.0 0.00 0.00 0.00 50 1016.6
20260905170922 93 204 3.0 6.0 0.00 0.00 0.00 51 1016.7
20260905170418 95 206 5.0 7.0 0.00 0.00 0.00 48 1016.7
20260905165918 94 179 4.0 4.0 0.00 0.00 0.00 50 1016.7
20260905165413 92 185 4.0 4.0 0.00 0.00 0.00 52 1016.8
20260905164909 92 223 1.0 3.0 0.00 0.00 0.00 54 1016.9
20260905164408 93 239 1.0 8.0 0.00 0.00 0.00 52 1017.1
20260905163903 95 141 1.0 4.0 0.00 0.00 0.00 50 1016.8
20260905163400 94 257 1.0 4.0 0.00 0.00 0.00 52 1016.8
20260905162856 92 207 3.0 4.0 0.00 0.00 0.00 55 1016.8
20260905162355 92 173 6.0 10.0 0.00 0.00 0.00 55 1017.0
20260905161850 91 187 3.0 6.0 0.00 0.00 0.00 54 1017.0
20260905161350 92 194 1.0 4.0 0.00 0.00 0.00 56 1017.2
20260905160848 91 224 1.0 2.0 0.00 0.00 0.00 56 1016.9
20260905160343 91 235 1.0 7.0 0.00 0.00 0.00 58 1016.9
20260905155837 91 144 3.0 4.0 0.00 0.00 0.00 58 1016.9
20260905155337 91 141 2.0 4.0 0.00 0.00 0.00 59 1017.0
20260905154836 89 200 2.0 3.0 0.00 0.00 0.00 62 1017.0
20260905154332 90 185 5.0 7.0 0.00 0.00 0.00 62 1016.9
20260905153827 90 211 2.0 4.0 0.00 0.00 0.00 62 1017.0
20260905153324 90 214 5.0 8.0 0.00 0.00 0.00 61 1017.2
20260905152823 89 348 2.0 3.0 0.00 0.00 0.00 65 1017.1
20260905152322 89 237 1.0 4.0 0.00 0.00 0.00 67 1017.2
20260905151818 87 115 0.0 3.0 0.00 0.00 0.00 70 1017.1
20260905151313 88 224 3.0 8.0 0.00 0.00 0.00 68 1017.1
20260905150813 87 211 2.0 3.0 0.00 0.00 0.00 70 1017.4
20260905150314 87 222 4.0 4.0 0.00 0.00 0.00 71 1017.1
20260905145811 85 191 2.0 4.0 0.00 0.00 0.00 73 1017.0
20260905145310 85 159 3.0 7.0 0.00 0.00 0.00 74 1016.9
20260905144809 85 95 5.0 6.0 0.00 0.00 0.00 74 1017.0
20260905144306 85 208 1.0 3.0 0.00 0.00 0.00 75 1016.9
20260905143804 84 179 4.0 6.0 0.00 0.00 0.00 76 1017.1
20260905143258 84 184 4.0 4.0 0.00 0.00 0.00 76 1017.0
20260905142757 84 174 4.0 4.0 0.00 0.00 0.00 76 1017.2
20260905142251 83 148 3.0 6.0 0.00 0.00 0.00 78 1017.1
20260905141748 83 182 4.0 6.0 0.00 0.00 0.00 77 1017.0
20260905141243 83 205 3.0 4.0 0.00 0.00 0.00 78 1016.9
20260905140738 82 197 1.0 3.0 0.00 0.00 0.00 80 1016.9
20260905140233 82 193 4.0 6.0 0.00 0.00 0.00 80 1016.9
20260905135732 82 196 4.0 4.0 0.00 0.00 0.00 80 1017.0
20260905135228 81 174 2.0 3.0 0.00 0.00 0.00 80 1016.9
20260905134727 81 210 2.0 3.0 0.00 0.00 0.00 80 1016.9
20260905134227 81 202 2.0 3.0 0.00 0.00 0.00 81 1016.7
20260905133722 80 212 0.0 3.0 0.00 0.00 0.00 82 1017.0
20260905133217 80 194 2.0 2.0 0.00 0.00 0.00 82 1016.8
20260905132716 80 184 1.0 2.0 0.00 0.00 0.00 82 1016.9
20260905132211 79 207 2.0 2.0 0.00 0.00 0.00 83 1017.1
20260905131706 79 185 1.0 2.0 0.00 0.00 0.00 84 1016.9
20260905131202 79 218 1.0 2.0 0.00 0.00 0.00 83 1016.8
20260905130656 79 225 0.0 0.0 0.00 0.00 0.00 85 1016.8
20260905130155 78 182 1.0 1.0 0.00 0.00 0.00 86 1016.7
20260905125650 77 189 0.0 2.0 0.00 0.00 0.00 87 1016.6
20260905125145 77 105 1.0 1.0 0.00 0.00 0.00 89 1016.7
20260905124642 76 163 0.0 0.0 0.00 0.00 0.00 91 1016.4
20260905124138 75 227 0.0 0.0 0.00 0.00 0.00 92 1016.3
20260905123632 74 229 0.0 0.0 0.00 0.00 0.00 92 1016.2
20260905123130 74 227 0.0 0.0 0.00 0.00 0.00 92 1016.1
20260905122629 74 214 0.0 0.0 0.00 0.00 0.00 92 1016.1
20260905122124 74 232 0.0 0.0 0.00 0.00 0.00 92 1016.1
20260905121619 73 232 0.0 0.0 0.00 0.00 0.00 91 1016.1
20260905121115 74 228 0.0 0.0 0.00 0.00 0.00 91 1015.9
20260905120613 74 227 0.0 0.0 0.00 0.00 0.00 91 1016.0
20260905120108 74 225 0.0 0.0 0.00 0.00 0.00 91 1015.9
20260905115607 74 222 0.0 0.0 0.00 0.00 0.00 91 1015.8
20260905115102 74 228 0.0 0.0 0.00 0.00 0.00 91 1015.7
20260905114602 74 228 0.0 0.0 0.00 0.00 0.00 91 1015.8
20260905114100 74 227 0.0 0.0 0.00 0.00 0.00 90 1016.0
20260905113556 74 236 0.0 0.0 0.00 0.00 0.00 90 1015.8
20260905113051 74 246 0.0 0.0 0.00 0.00 0.00 90 1015.8
20260905112546 74 237 0.0 0.0 0.00 0.00 0.00 90 1016.0
20260905112041 74 251 0.0 0.0 0.00 0.00 0.00 89 1015.8
20260905111537 75 251 0.0 0.0 0.00 0.00 0.00 89 1015.8
20260905111036 75 187 0.0 1.0 0.00 0.00 0.00 90 1015.7
20260905110535 75 210 0.0 0.0 0.00 0.00 0.00 89 1015.8
20260905110030 75 226 0.0 0.0 0.00 0.00 0.00 89 1015.7
20260905105530 75 258 0.0 0.0 0.00 0.00 0.00 89 1015.7
20260905105029 75 266 0.0 0.0 0.00 0.00 0.00 89 1015.8
20260905104526 75 251 0.0 0.0 0.00 0.00 0.00 89 1015.6
20260905104025 75 251 0.0 0.0 0.00 0.00 0.00 89 1015.6
20260905103520 75 253 0.0 0.0 0.00 0.00 0.00 89 1015.6
20260905103017 75 242 0.0 0.0 0.00 0.00 0.00 89 1015.7
20260905102512 75 245 0.0 0.0 0.00 0.00 0.00 88 1015.7
20260905102008 75 215 0.0 0.0 0.00 0.00 0.00 88 1015.7
20260905101507 76 235 0.0 0.0 0.00 0.00 0.00 88 1015.5
20260905101005 76 230 0.0 0.0 0.00 0.00 0.00 88 1015.6
20260905100501 76 205 0.0 0.0 0.00 0.00 0.00 88 1015.5
20260905100000 76 229 0.0 0.0 0.00 0.00 0.00 88 1015.8
20260905095455 76 226 0.0 1.0 0.00 0.00 0.00 88 1015.7
20260905094951 75 210 1.0 1.0 0.00 0.00 0.00 89 1015.8
20260905094446 75 191 1.0 1.0 0.00 0.00 0.00 89 1015.8
20260905093944 75 217 0.0 1.0 0.00 0.00 0.00 89 1015.6
20260905093440 75 228 0.0 0.0 0.00 0.00 0.00 88 1015.4
20260905092936 75 226 0.0 0.0 0.00 0.00 0.00 88 1015.4
20260905092431 75 230 0.0 0.0 0.00 0.00 0.00 88 1015.5
20260905091927 75 230 0.0 0.0 0.00 0.00 0.00 88 1015.7
20260905091427 75 234 0.0 0.0 0.00 0.00 0.00 87 1015.7
20260905090926 75 234 0.0 0.0 0.00 0.00 0.00 87 1015.4
20260905090421 76 233 0.0 0.0 0.00 0.00 0.00 87 1015.6
20260905085920 76 231 0.0 0.0 0.00 0.00 0.00 87 1015.7
20260905085420 76 233 0.0 0.0 0.00 0.00 0.00 86 1015.7
20260905084916 76 233 0.0 0.0 0.00 0.00 0.00 86 1015.6
20260905084415 76 233 0.0 0.0 0.00 0.00 0.00 86 1015.5
20260905083910 76 220 0.0 0.0 0.00 0.00 0.00 85 1015.5
20260905083406 77 230 0.0 0.0 0.00 0.00 0.00 85 1015.6
20260905082901 76 238 0.0 2.0 0.00 0.00 0.00 85 1015.5
20260905082357 77 234 0.0 0.0 0.00 0.00 0.00 85 1015.4
20260905081852 76 233 0.0 0.0 0.00 0.00 0.00 85 1015.4
20260905081347 76 223 0.0 1.0 0.00 0.00 0.00 84 1015.3
20260905080846 76 225 0.0 0.0 0.00 0.00 0.00 84 1015.6
20260905080346 76 160 0.0 0.0 0.00 0.00 0.00 84 1015.5
20260905075845 76 225 0.0 0.0 0.00 0.00 0.00 83 1015.5
20260905075339 77 225 0.0 0.0 0.00 0.00 0.00 83 1015.6
20260905074838 77 221 0.0 0.0 0.00 0.00 0.00 83 1015.5
20260905074335 77 232 0.0 0.0 0.00 0.00 0.00 82 1015.5
20260905073830 77 233 0.0 0.0 0.00 0.00 0.00 82 1015.5
20260905073325 77 224 0.0 0.0 0.00 0.00 0.00 81 1015.6
20260905072825 77 230 0.0 0.0 0.00 0.00 0.00 81 1015.8
20260905072321 78 237 0.0 0.0 0.00 0.00 0.00 80 1015.7
20260905071817 78 209 0.0 1.0 0.00 0.00 0.00 80 1015.6
20260905071313 78 217 0.0 1.0 0.00 0.00 0.00 80 1015.4
20260905070808 78 213 0.0 1.0 0.00 0.00 0.00 79 1015.7
20260905070304 78 189 1.0 2.0 0.00 0.00 0.00 79 1015.6
20260905065803 78 225 1.0 3.0 0.00 0.00 0.00 79 1015.6
20260905065306 79 227 0.0 1.0 0.00 0.00 0.00 78 1015.8
20260905064757 79 180 2.0 3.0 0.00 0.00 0.00 78 1015.9
20260905064253 79 213 2.0 2.0 0.00 0.00 0.00 77 1015.9
20260905063751 79 185 2.0 3.0 0.00 0.00 0.00 77 1015.9
20260905063248 79 183 2.0 2.0 0.00 0.00 0.00 77 1016.0
20260905062743 79 205 2.0 4.0 0.00 0.00 0.00 77 1015.8
20260905062243 79 188 2.0 4.0 0.00 0.00 0.00 77 1015.8
20260905061737 79 219 2.0 2.0 0.00 0.00 0.00 77 1015.7
20260905061232 80 168 2.0 3.0 0.00 0.00 0.00 77 1015.9
20260905060732 80 196 0.0 3.0 0.00 0.00 0.00 76 1015.9
20260905060229 80 220 2.0 2.0 0.00 0.00 0.00 76 1016.0
20260905055727 80 209 3.0 6.0 0.00 0.00 0.00 76 1015.7
20260905055223 80 201 4.0 4.0 0.00 0.00 0.00 76 1015.9
20260905054712 80 197 1.0 4.0 0.00 0.00 0.00 76 1016.1
20260905054209 80 161 3.0 3.0 0.00 0.00 0.00 76 1015.8
20260905053708 80 170 3.0 4.0 0.00 0.00 0.00 76 1015.8
20260905053203 80 206 1.0 2.0 0.00 0.00 0.00 76 1015.9
20260905052702 80 200 2.0 3.0 0.00 0.00 0.00 76 1015.8
20260905052157 81 192 2.0 2.0 0.00 0.00 0.00 75 1016.1
20260905051652 81 209 1.0 3.0 0.00 0.00 0.00 74 1015.9
20260905051149 81 243 2.0 4.0 0.00 0.00 0.00 74 1015.9
20260905050645 81 190 4.0 4.0 0.00 0.00 0.00 74 1015.8
20260905050142 81 215 1.0 2.0 0.00 0.00 0.00 74 1015.9
20260905045641 81 193 2.0 3.0 0.00 0.00 0.00 74 1015.9
20260905045137 81 199 2.0 2.0 0.00 0.00 0.00 74 1015.8
20260905044636 81 202 1.0 2.0 0.00 0.00 0.00 73 1015.9
20260905044131 81 168 2.0 3.0 0.00 0.00 0.00 73 1015.8
20260905043630 81 211 1.0 2.0 0.00 0.00 0.00 73 1016.0
20260905043125 81 212 1.0 2.0 0.00 0.00 0.00 74 1015.9
20260905042624 81 192 1.0 3.0 0.00 0.00 0.00 74 1015.9
20260905042120 81 203 1.0 2.0 0.00 0.00 0.00 74 1015.9
20260905041615 81 219 0.0 1.0 0.00 0.00 0.00 74 1015.8
20260905041111 81 201 0.0 1.0 0.00 0.00 0.00 74 1015.9
20260905040610 81 226 0.0 0.0 0.00 0.00 0.00 73 1016.0
20260905040109 82 213 0.0 0.0 0.00 0.00 0.00 72 1015.8
20260905035604 82 224 0.0 0.0 0.00 0.00 0.00 72 1016.2
20260905035101 82 234 0.0 0.0 0.00 0.00 0.00 71 1015.9
20260905034557 82 234 0.0 0.0 0.00 0.00 0.00 71 1015.9
20260905034056 82 226 1.0 2.0 0.00 0.00 0.00 70 1015.9
20260905033550 83 206 0.0 0.0 0.00 0.00 0.00 70 1015.9
20260905033046 83 229 0.0 1.0 0.00 0.00 0.00 69 1015.9
20260905032546 83 218 0.0 2.0 0.00 0.00 0.00 69 1015.9
20260905032041 83 239 1.0 4.0 0.00 0.00 0.00 69 1015.9
20260905031537 83 232 1.0 2.0 0.00 0.00 0.00 69 1015.9
20260905031037 84 216 1.0 2.0 0.00 0.00 0.00 68 1015.8
20260905030532 84 131 1.0 4.0 0.00 0.00 0.00 68 1015.7
20260905030032 84 214 1.0 3.0 0.00 0.00 0.00 68 1015.8
20260905025527 84 211 1.0 2.0 0.00 0.00 0.00 68 1015.7